Tracking 19817 objects as of 17-Aug-2019
HD Live streaming from Space Station
objects crossing your sky now

COSMOS 737

Track COSMOS 737 now!
10-day predictions
COSMOS 737 is classified as:


NORAD ID: 7826
Int'l Code: 1975-045F
Perigee: 1,477.5 km
Apogee: 1,535.6 km
Inclination: 74.0 °
Period: 116.0 minutes
Semi major axis: 7877 km
RCS: 0.701 m2 (medium)
Launch date: May 28, 1975
Source: Commonwealth of Independent States (former USSR) (CIS)
Launch site: PLESETSK MISSILE AND SPACE COMPLEX (PKMTR)
aabbcc
Your satellite tracking list
Your tracking list is empty




NASA's NSSDC Master Catalog

Two Line Element Set (TLE):
1  7826U 75045F   19228.82443932 -.00000020  00000-0 -35629-4 0  9994
2  7826  74.0204 354.2853 0036882 147.7523   7.6502 12.41706698  4714
Source of the keplerian elements: AFSPC